Location: Columbia
(38.9520°N, 92.3340°W)
Time: 01:03:40
(UTC-05:00)

FENGYUN 3A - Visible Passes

Search period start: 24 May 2016 00:00
Search period end: 03 June 2016 00:00
Orbit: 820 x 833 km, 98.5° (Epoch: 23 May)

Date Brightness Start Highest point End Pass type
(mag) Time Alt. Az. Time Alt. Az. Time Alt. Az.
24 May 3.8 20:59:30 10° S 21:04:52 79° WSW 21:10:17 10° NNW visible
25 May 6.2 22:24:14 10° WSW 22:26:46 13° W 22:29:19 10° WNW visible
26 May 5.9 22:03:46 10° SW 22:07:42 20° W 22:11:38 10° NW visible
27 May 5.3 21:44:00 10° SSW 21:48:41 30° W 21:53:24 10° NW visible
28 May 4.7 21:24:36 10° S 21:29:43 45° W 21:34:54 10° NNW visible
29 May 4.0 21:05:28 10° S 21:10:48 69° WSW 21:16:12 10° NNW visible
30 May 6.3 22:31:07 10° WSW 22:32:47 11° W 22:34:27 10° WNW visible
31 May 6.1 22:10:09 10° SW 22:13:42 18° W 22:17:16 10° NW visible
01 Jun 5.5 21:50:11 10° SSW 21:54:40 27° W 21:59:11 10° NW visible
02 Jun 4.9 21:30:41 10° SSW 21:35:41 39° W 21:40:45 10° NNW visible
